Location: ?????
(33.6267°N, 35.4675°E)
Time: 08:25:32
(UTC+00:00)

ATLAS 5 CENTAUR R/B - Pass Details

Date: 12 November 2019
Orbit: 563 x 1096 km, 63.3° (Epoch: 29 November)

Event Time Altitude Azimuth Distance (km) Brightness Sun altitude
Rises 15:07:33 0° 346° (NNW) 3,368 5.3 -6.8°
Reaches altitude 10° 15:10:50 10° 6° (N) 2,539 4.5 -7.4°
Maximum altitude 15:14:42 17° 47° (NE) 2,166 3.8 -8.2°
Enters shadow 15:18:49 10° 86° (E) 2,759 4.2 -9.0°
